Regional Weather Roundup
Issued by NWS Mobile, AL

Home | Current Version | Previous Version | Text Only | Print | Product List | Glossary On
Versions: 1 2 3 4 5 6 7 8 9 10 11 12 13 14 15 16 17 18 19 20 21 22 23 24 25 26 27 28
000
ASUS44 KMOB 312210
RWRMOB
REGIONAL WEATHER ROUNDUP
NATIONAL WEATHER SERVICE MOBILE AL
500 PM CDT FRI OCT 31 2014

NOTE: "FAIR" INDICATES FEW OR NO CLOUDS BELOW 12,000 FEET WITH NO
      SIGNIFICANT WEATHER AND/OR OBSTRUCTIONS TO VISIBILITY.

  * THESE STATIONS ARE PART OF THE UNIVERSITY OF SOUTH ALABAMA
    MESONET AND ARE NOT UNDER NWS OR FAA QUALITY CONTROL.

ALZ061>064-312300-
COASTAL ALABAMA

CITY           SKY/WX    TMP DP  RH WIND       PRES   REMARKS
MOBILE REG APT MOSUNNY   70  45  40 NW12G21   29.97R
BROOKLEY FIELD SUNNY     74  43  32 NW22      29.96R
USA CAMPUS*      N/A     70  46  43 CALM      29.96R
DOG RIVER*     NOT AVBL


CITY           SKY/WX    TMP DP  RH WIND       PRES   REMARKS
MOUNT VERNON*  NOT AVBL
SARALAND*      NOT AVBL
BAY MINETTE*   NOT AVBL
LOXLEY*          N/A     68  45  42 NW12      29.94R
ROBERTSDALE*     N/A     70  45  40 N6        29.94R
FAIRHOPE*        N/A     73  45  35 NW12      29.93R
ELBERTA*         N/A     72  43  35 N6        29.93R
FOLEY*           N/A     70  43  37 W9        29.89R
GRAND BAY*       N/A     73  43  33 NW5       29.94R
DAUPHIN ISLND* NOT AVBL
BON SCOUR NWR* NOT AVBL
GULF SHORES    MOSUNNY   73  44  36 NW10G18   29.93R

$$

ALZ051>060-312300-
INTERIOR SOUTHWEST AND SOUTH CENTRAL ALABAMA

CITY           SKY/WX    TMP DP  RH WIND       PRES   REMARKS
GREENVILLE     PTSUNNY   68  43  40 NW7       29.92R THUNDER
EVERGREEN      MOSUNNY   71  44  37 VRB3      29.93R
CASTLEBERRY*   NOT AVBL
ATMORE*          N/A     72  43  35 NW8       29.94R
DIXIE*           N/A     68  50  52 CALM      29.90R
ANDALUSIA/OPP  MOSUNNY   73  46  38 N9        29.91R
ANDALUSIA*       N/A     70  46  43 W7        29.91R
FLORALA APT    MOSUNNY   69  47  45 VRB5      29.93R
FLORALA*         N/A     70  43  37 W9        29.89R

$$

FLZ001>006-312300-
WESTERN FLORIDA PANHANDLE

CITY           SKY/WX    TMP DP  RH WIND       PRES   REMARKS
PENSACOLA      MOSUNNY   71  45  39 NW10      29.92R
NAS PENSACOLA  PTSUNNY   71  48  43 VRB7      29.93R
MILTON         MOSUNNY   69  45  41 NW8       29.93R
WHTNG S FIELD  MOSUNNY   71  47  42 NW8       29.93R


CITY           SKY/WX    TMP DP  RH WIND       PRES   REMARKS
WALNUT HILL*   NOT AVBL
JAY*             N/A     72  45  37 NW9       29.93R
DUKE FIELD     PTSUNNY   71  47  42 NW8       29.91R
CRESTVIEW      MOSUNNY   71  47  42 W8        29.93R
VALPARAISO     PTSUNNY   72  45  38 W12       29.92R
DESTIN         CLOUDY    73  50  44 W10G17    29.91R

$$

MSZ076-079-312300-
INTERIOR SOUTHEAST MISSISSIPPI

CITY           SKY/WX    TMP DP  RH WIND       PRES   REMARKS
LEAKESVILLE*     N/A     70  43  37 NW8       29.98R
AGRICOLA*      NOT AVBL

$$

MARINE OBSERVATIONS

STATION/POSITION TIME  TEMP    WIND        PRES    WAVE
                       AIR SEA DIR/SP/G            HT/PER
                 (UTC) (F)     (DEG/KT/KT) (MB)    (FT/S)
PASCAGOULA       2200   72     340/ 14/ 19 1014.3R
PETIT BOIS ISLND 2200   73     320/ 16/ 20 1014.7R
GRAND BAY        2100   73     320/ 15     1014.0S
KATRINA CUT      2100   72     320/ 18     1013.9S
CEDAR POINT      2100   72     310/ 15     1013.2F
E DAUPHIN ISLAND 2157   72     300/ 15/ 18 1014.2R
MIDDLE BAY LIGHT 2100   74     330/ 19       N/A
USCG MOBILE BAY  2200   72 74  330/  9/ 14 1012.9R
STATE DOCKS      2200   74 73              1013.7R
MEAHER PARK      2100   73     310/ 12     1013.5R
WEEKS BAY        2100   74                   N/A
12 S ORANGE BCH  2200   72 77  280/ 16/ 19 1013.3R   2/ 3
PENSACOLA BAY    2200   73 73  300/  6/ 13 1013.5R
64 S DAUPHIN ISL 2124   71 78  300/ 19/ 25 1015.2R   3/ 4
67 S FORT MORGAN 2000   74                 1014.2F

$$

SELECTED LOCATIONS ACROSS THE REGION

CITY           SKY/WX    TMP DP  RH WIND       PRES   REMARKS
NEW ORLEANS    MOSUNNY   73  44  35 NW17G29   30.03R
GULFPORT       SUNNY     73  44  35 NW16G22   29.98R
PASCAGOULA AP  SUNNY     72  44  36 NW10G18   29.96R
PASCAGOULA*      N/A     72  39  30 NW8       29.96R
HATTIESBURG    MOSUNNY   70  46  42 NW17G24   30.02R
LAUREL         MOSUNNY   68  45  42 NW14G21   30.04R
MERIDIAN       MOSUNNY   65  44  46 NW15G25   30.02R
JACKSON        MOSUNNY   62  44  51 NW24G31   30.12R
MONTGOMERY     MOSUNNY   67  44  43 N14G22    29.94R
TROY           MOSUNNY   67  44  43 NW10      29.91R
KINSTON*       NOT AVBL
GENEVA*          N/A     68  46  45 N3        29.92R
ASHFORD*         N/A     70  46  43 W7        29.91R
DOTHAN         PTCLDY    68  44  42 NW13      29.92R
PANAMA CITY    MOSUNNY   72  46  39 SW12      29.89R

$$




USA.gov is the U.S. government's official web portal to all federal, state and local government web resources and services.